^^
Station Historical Data
 
Daily Summary for June 20, 2018 Units:  English    Metric   Both
« Previous Day
Next Day »
Daily Weekly Monthly Yearly Custom
  Current: High: Low: Average:
Temperature: 81.5 °F 82.4 °F 57.2 °F 69.2 °F
Dew Point: 52.0 °F 60.9 °F 51.5 °F 54.9 °F
Humidity: 36% 83% 36% 63%
Wind Speed: 5.0mph 14.0mph 0.0mph 4.8mph
Wind Gust: 12.0mph 16.0mph - -
WindNNE - - SE
Pressure: 29.90 in 29.95 in 29.90 in -
Precipitation: 0.00 in      
Historical Graphs
 
 
Tabular Data for June 20, 2018
Time Temperature Dew Point Pressure Wind Wind Speed Wind Gust Humidity Rainfall Rate (Hourly) solar Conditions
00:04 67.2 °F 54.2 °F 29.94 in NE 5.0 mph 8.0 mph 63% 0.00 in 0.00 W/m2
00:09 67.3 °F 54.3 °F 29.94 in NE 7.0 mph 7.0 mph 63% 0.00 in 0.00 W/m2
00:14 67.3 °F 54.3 °F 29.93 in NNE 6.0 mph 7.0 mph 63% 0.00 in 0.00 W/m2
00:19 67.1 °F 54.1 °F 29.93 in NNE 5.0 mph 8.0 mph 63% 0.00 in 0.00 W/m2
00:24 67.0 °F 54.0 °F 29.93 in NNE 4.0 mph 9.0 mph 63% 0.00 in 0.00 W/m2
00:29 66.9 °F 53.9 °F 29.93 in NNE 7.0 mph 9.0 mph 63% 0.00 in 0.00 W/m2
00:34 66.8 °F 54.2 °F 29.93 in NE 5.0 mph 7.0 mph 64% 0.00 in 0.00 W/m2
00:39 66.6 °F 54.0 °F 29.94 in NNE 7.0 mph 7.0 mph 64% 0.00 in 0.00 W/m2
00:44 66.4 °F 54.3 °F 29.94 in NNE 6.0 mph 7.0 mph 65% 0.00 in 0.00 W/m2
00:49 66.1 °F 54.4 °F 29.94 in NNE 4.0 mph 7.0 mph 66% 0.00 in 0.00 W/m2
00:54 66.0 °F 54.3 °F 29.93 in NE 3.0 mph 7.0 mph 66% 0.00 in 0.00 W/m2
00:59 65.9 °F 54.2 °F 29.94 in NE 2.0 mph 7.0 mph 66% 0.00 in 0.00 W/m2
01:04 65.7 °F 54.0 °F 29.94 in NNE 4.0 mph 6.0 mph 66% 0.00 in 0.00 W/m2
01:09 65.6 °F 53.9 °F 29.93 in NNE 3.0 mph 9.0 mph 66% 0.00 in 0.00 W/m2
01:14 65.6 °F 53.5 °F 29.94 in NNE 6.0 mph 9.0 mph 65% 0.00 in 0.00 W/m2
01:19 65.7 °F 53.2 °F 29.94 in NE 5.0 mph 9.0 mph 64% 0.00 in 0.00 W/m2
01:24 65.9 °F 52.9 °F 29.94 in NE 5.0 mph 8.0 mph 63% 0.00 in 0.00 W/m2
01:29 66.2 °F 52.8 °F 29.94 in NE 7.0 mph 8.0 mph 62% 0.00 in 0.00 W/m2
01:34 66.3 °F 52.9 °F 29.94 in NE 5.0 mph 8.0 mph 62% 0.00 in 0.00 W/m2
01:39 66.4 °F 52.5 °F 29.94 in ENE 5.0 mph 8.0 mph 61% 0.00 in 0.00 W/m2
01:44 66.4 °F 52.5 °F 29.94 in NE 6.0 mph 8.0 mph 61% 0.00 in 0.00 W/m2
01:49 66.3 °F 52.4 °F 29.93 in NE 5.0 mph 8.0 mph 61% 0.00 in 0.00 W/m2
01:54 66.1 °F 52.7 °F 29.93 in NE 6.0 mph 8.0 mph 62% 0.00 in 0.00 W/m2
01:59 66.0 °F 52.6 °F 29.93 in NE 4.0 mph 8.0 mph 62% 0.00 in 0.00 W/m2
02:04 65.9 °F 52.5 °F 29.93 in NE 4.0 mph 8.0 mph 62% 0.00 in 0.00 W/m2
02:09 65.9 °F 52.5 °F 29.93 in NE 5.0 mph 8.0 mph 62% 0.00 in 0.00 W/m2
02:14 65.7 °F 52.8 °F 29.93 in NE 3.0 mph 7.0 mph 63% 0.00 in 0.00 W/m2
02:19 65.4 °F 52.9 °F 29.93 in NNE 4.0 mph 6.0 mph 64% 0.00 in 0.00 W/m2
02:24 65.1 °F 53.0 °F 29.93 in NNE 4.0 mph 6.0 mph 65% 0.00 in 0.00 W/m2
02:29 64.7 °F 52.7 °F 29.93 in NNE 3.0 mph 5.0 mph 65% 0.00 in 0.00 W/m2
02:34 64.3 °F 53.1 °F 29.93 in NNE 1.0 mph 5.0 mph 67% 0.00 in 0.00 W/m2
02:39 63.9 °F 52.7 °F 29.93 in NNE 3.0 mph 5.0 mph 67% 0.00 in 0.00 W/m2
02:44 63.5 °F 53.1 °F 29.93 in NNE 3.0 mph 5.0 mph 69% 0.00 in 0.00 W/m2
02:49 63.0 °F 53.1 °F 29.93 in NNE 4.0 mph 6.0 mph 70% 0.00 in 0.00 W/m2
02:54 62.7 °F 53.2 °F 29.94 in NNE 4.0 mph 7.0 mph 71% 0.00 in 0.00 W/m2
02:59 62.5 °F 53.0 °F 29.94 in NNE 5.0 mph 7.0 mph 71% 0.00 in 0.00 W/m2
03:04 62.4 °F 52.9 °F 29.94 in NNE 5.0 mph 7.0 mph 71% 0.00 in 0.00 W/m2
03:09 62.3 °F 52.8 °F 29.94 in NE 5.0 mph 8.0 mph 71% 0.00 in 0.00 W/m2
03:14 62.2 °F 53.1 °F 29.94 in NNE 6.0 mph 8.0 mph 72% 0.00 in 0.00 W/m2
03:19 62.0 °F 52.9 °F 29.93 in NE 4.0 mph 9.0 mph 72% 0.00 in 0.00 W/m2
03:24 61.8 °F 52.7 °F 29.93 in NE 5.0 mph 9.0 mph 72% 0.00 in 0.00 W/m2
03:29 61.7 °F 52.6 °F 29.93 in NNE 4.0 mph 7.0 mph 72% 0.00 in 0.00 W/m2
03:34 61.5 °F 52.8 °F 29.93 in NNE 5.0 mph 7.0 mph 73% 0.00 in 0.00 W/m2
03:39 61.3 °F 52.6 °F 29.93 in NNE 5.0 mph 7.0 mph 73% 0.00 in 0.00 W/m2
03:44 61.1 °F 52.7 °F 29.93 in NE 5.0 mph 7.0 mph 74% 0.00 in 0.00 W/m2
03:49 61.0 °F 52.7 °F 29.93 in NNE 7.0 mph 8.0 mph 74% 0.00 in 0.00 W/m2
03:54 60.9 °F 52.6 °F 29.93 in NE 7.0 mph 8.0 mph 74% 0.00 in 0.00 W/m2
03:59 60.9 °F 52.6 °F 29.93 in NE 5.0 mph 8.0 mph 74% 0.00 in 0.00 W/m2
04:04 60.9 °F 52.6 °F 29.93 in NE 5.0 mph 8.0 mph 74% 0.00 in 0.00 W/m2
04:09 60.9 °F 52.6 °F 29.93 in NE 5.0 mph 7.0 mph 74% 0.00 in 0.00 W/m2
04:14 60.9 °F 52.6 °F 29.93 in NE 5.0 mph 7.0 mph 74% 0.00 in 0.00 W/m2
04:19 61.0 °F 52.7 °F 29.93 in NNE 3.0 mph 7.0 mph 74% 0.00 in 0.00 W/m2
04:24 61.0 °F 52.7 °F 29.93 in NNE 4.0 mph 6.0 mph 74% 0.00 in 0.00 W/m2
04:29 61.0 °F 52.7 °F 29.93 in NNE 2.0 mph 6.0 mph 74% 0.00 in 0.00 W/m2
04:34 60.4 °F 52.4 °F 29.93 in North 3.0 mph 6.0 mph 75% 0.00 in 0.00 W/m2
04:39 60.0 °F 52.4 °F 29.93 in NNE 3.0 mph 6.0 mph 76% 0.00 in 0.00 W/m2
04:44 59.8 °F 52.6 °F 29.93 in NNE 5.0 mph 7.0 mph 77% 0.00 in 0.00 W/m2
04:49 59.8 °F 52.6 °F 29.93 in NE 4.0 mph 7.0 mph 77% 0.00 in 0.00 W/m2
04:54 59.9 °F 52.7 °F 29.93 in NE 6.0 mph 6.0 mph 77% 0.00 in 0.00 W/m2
04:59 59.9 °F 52.7 °F 29.93 in NE 6.0 mph 6.0 mph 77% 0.00 in 0.00 W/m2
05:04 59.8 °F 52.2 °F 29.93 in NNE 4.0 mph 6.0 mph 76% 0.00 in 0.00 W/m2
05:09 59.9 °F 52.3 °F 29.93 in NE 4.0 mph 7.0 mph 76% 0.00 in 0.00 W/m2
05:14 59.9 °F 52.3 °F 29.93 in NNE 3.0 mph 7.0 mph 76% 0.00 in 0.00 W/m2
05:19 60.1 °F 52.1 °F 29.93 in NNE 3.0 mph 7.0 mph 75% 0.00 in 0.00 W/m2
05:24 60.1 °F 52.1 °F 29.93 in NNE 5.0 mph 7.0 mph 75% 0.00 in 0.00 W/m2
05:29 60.3 °F 52.0 °F 29.93 in NNE 4.0 mph 7.0 mph 74% 0.00 in 0.00 W/m2
05:34 60.3 °F 52.0 °F 29.93 in Calm   7.0 mph 74% 0.00 in 0.00 W/m2
05:39 59.6 °F 52.0 °F 29.93 in Calm   5.0 mph 76% 0.00 in 5.00 W/m2
05:44 58.9 °F 51.7 °F 29.93 in North 2.0 mph 4.0 mph 77% 0.00 in 0.00 W/m2
05:49 58.5 °F 52.0 °F 29.93 in Calm   4.0 mph 79% 0.00 in 0.00 W/m2
05:54 58.3 °F 51.8 °F 29.94 in North 3.0 mph 3.0 mph 79% 0.00 in 0.00 W/m2
05:59 58.2 °F 51.7 °F 29.94 in NNW 3.0 mph 4.0 mph 79% 0.00 in 7.00 W/m2
06:04 58.2 °F 52.1 °F 29.93 in NNW 3.0 mph 4.0 mph 80% 0.00 in 9.00 W/m2
06:09 58.0 °F 51.9 °F 29.94 in WNW 2.0 mph 4.0 mph 80% 0.00 in 12.00 W/m2
06:14 57.5 °F 51.7 °F 29.94 in WNW 2.0 mph 3.0 mph 81% 0.00 in 14.00 W/m2
06:19 57.5 °F 51.7 °F 29.94 in NW 3.0 mph 3.0 mph 81% 0.00 in 19.00 W/m2
06:24 57.3 °F 51.5 °F 29.94 in NW 2.0 mph 3.0 mph 81% 0.00 in 23.00 W/m2
06:29 57.3 °F 51.9 °F 29.94 in NW 3.0 mph 3.0 mph 82% 0.00 in 28.00 W/m2
06:34 57.2 °F 51.8 °F 29.94 in North 3.0 mph 4.0 mph 82% 0.00 in 32.00 W/m2
06:39 57.3 °F 51.9 °F 29.94 in North 3.0 mph 5.0 mph 82% 0.00 in 37.00 W/m2
06:44 57.6 °F 52.5 °F 29.94 in North 5.0 mph 6.0 mph 83% 0.00 in 42.00 W/m2
06:49 57.9 °F 52.4 °F 29.94 in North 5.0 mph 7.0 mph 82% 0.00 in 46.00 W/m2
06:54 58.3 °F 52.5 °F 29.94 in North 4.0 mph 7.0 mph 81% 0.00 in 51.00 W/m2
06:59 58.7 °F 53.2 °F 29.94 in North 7.0 mph 7.0 mph 82% 0.00 in 56.00 W/m2
07:04 58.8 °F 53.0 °F 29.94 in North 4.0 mph 7.0 mph 81% 0.00 in 63.00 W/m2
07:09 58.9 °F 53.1 °F 29.94 in NNE 6.0 mph 7.0 mph 81% 0.00 in 70.00 W/m2
07:14 59.3 °F 53.5 °F 29.94 in North 6.0 mph 7.0 mph 81% 0.00 in 79.00 W/m2
07:19 59.6 °F 53.8 °F 29.94 in North 3.0 mph 7.0 mph 81% 0.00 in 86.00 W/m2
07:24 60.0 °F 54.2 °F 29.94 in North 3.0 mph 6.0 mph 81% 0.00 in 93.00 W/m2
07:29 60.2 °F 54.0 °F 29.94 in North 4.0 mph 5.0 mph 80% 0.00 in 100.00 W/m2
07:34 60.4 °F 54.2 °F 29.94 in NNE 3.0 mph 5.0 mph 80% 0.00 in 109.00 W/m2
07:39 60.7 °F 54.5 °F 29.94 in NNE 3.0 mph 5.0 mph 80% 0.00 in 118.00 W/m2
07:44 61.0 °F 54.4 °F 29.94 in NNE 4.0 mph 5.0 mph 79% 0.00 in 127.00 W/m2
07:49 61.4 °F 54.5 °F 29.94 in NNE 3.0 mph 6.0 mph 78% 0.00 in 135.00 W/m2
07:54 61.9 °F 55.0 °F 29.94 in NW 2.0 mph 6.0 mph 78% 0.00 in 146.00 W/m2
07:59 62.0 °F 55.1 °F 29.94 in NW 4.0 mph 5.0 mph 78% 0.00 in 155.00 W/m2
08:04 61.9 °F 55.0 °F 29.94 in WNW 1.0 mph 5.0 mph 78% 0.00 in 162.00 W/m2
08:09 61.8 °F 54.9 °F 29.94 in WNW 2.0 mph 4.0 mph 78% 0.00 in 167.00 W/m2
08:14 61.8 °F 54.5 °F 29.95 in NW 4.0 mph 6.0 mph 77% 0.00 in 176.00 W/m2
08:19 62.0 °F 55.4 °F 29.95 in WSW 3.0 mph 6.0 mph 79% 0.00 in 183.00 W/m2
08:24 61.8 °F 55.2 °F 29.95 in West 1.0 mph 5.0 mph 79% 0.00 in 190.00 W/m2
08:29 61.7 °F 55.5 °F 29.95 in WNW 2.0 mph 5.0 mph 80% 0.00 in 206.00 W/m2
08:34 61.7 °F 55.8 °F 29.95 in West 3.0 mph 3.0 mph 81% 0.00 in 220.00 W/m2
08:39 61.7 °F 55.8 °F 29.95 in WNW 2.0 mph 3.0 mph 81% 0.00 in 223.00 W/m2
08:44 61.9 °F 56.0 °F 29.95 in WNW 3.0 mph 4.0 mph 81% 0.00 in 227.00 W/m2
08:49 62.0 °F 55.8 °F 29.95 in WNW 4.0 mph 4.0 mph 80% 0.00 in 236.00 W/m2
08:54 62.1 °F 55.5 °F 29.95 in West 2.0 mph 4.0 mph 79% 0.00 in 257.00 W/m2
08:59 62.4 °F 56.1 °F 29.95 in WNW 3.0 mph 4.0 mph 80% 0.00 in 260.00 W/m2
09:04 62.6 °F 56.3 °F 29.95 in West 3.0 mph 4.0 mph 80% 0.00 in 279.00 W/m2
09:09 63.1 °F 56.8 °F 29.94 in WNW 2.0 mph 4.0 mph 80% 0.00 in 308.00 W/m2
09:14 63.6 °F 57.0 °F 29.95 in West 3.0 mph 4.0 mph 79% 0.00 in 345.00 W/m2
09:19 64.1 °F 57.1 °F 29.94 in NW 4.0 mph 5.0 mph 78% 0.00 in 315.00 W/m2
09:24 64.4 °F 57.0 °F 29.95 in WNW 3.0 mph 5.0 mph 77% 0.00 in 304.00 W/m2
09:29 64.7 °F 57.7 °F 29.95 in WNW 3.0 mph 5.0 mph 78% 0.00 in 304.00 W/m2
09:34 65.1 °F 57.7 °F 29.95 in WNW 4.0 mph 5.0 mph 77% 0.00 in 311.00 W/m2
09:39 65.4 °F 58.0 °F 29.95 in WNW 3.0 mph 5.0 mph 77% 0.00 in 343.00 W/m2
09:44 65.6 °F 58.2 °F 29.95 in West 3.0 mph 5.0 mph 77% 0.00 in 371.00 W/m2
09:49 66.0 °F 58.6 °F 29.95 in NW 4.0 mph 5.0 mph 77% 0.00 in 362.00 W/m2
09:54 66.3 °F 58.9 °F 29.95 in NW 4.0 mph 5.0 mph 77% 0.00 in 374.00 W/m2
09:59 66.7 °F 58.9 °F 29.95 in WNW 4.0 mph 5.0 mph 76% 0.00 in 369.00 W/m2
10:04 66.9 °F 59.1 °F 29.95 in West 4.0 mph 5.0 mph 76% 0.00 in 394.00 W/m2
10:09 67.3 °F 59.1 °F 29.95 in WNW 1.0 mph 5.0 mph 75% 0.00 in 429.00 W/m2
10:14 67.7 °F 59.9 °F 29.95 in WNW 4.0 mph 6.0 mph 76% 0.00 in 415.00 W/m2
10:19 68.0 °F 59.8 °F 29.95 in West 3.0 mph 6.0 mph 75% 0.00 in 408.00 W/m2
10:24 68.3 °F 60.1 °F 29.94 in West 4.0 mph 5.0 mph 75% 0.00 in 406.00 W/m2
10:29 68.6 °F 60.0 °F 29.94 in WNW 3.0 mph 6.0 mph 74% 0.00 in 429.00 W/m2
10:34 69.1 °F 60.1 °F 29.94 in West 1.0 mph 6.0 mph 73% 0.00 in 459.00 W/m2
10:39 69.6 °F 60.6 °F 29.94 in West 3.0 mph 5.0 mph 73% 0.00 in 524.00 W/m2
10:44 70.0 °F 60.2 °F 29.94 in WNW 2.0 mph 5.0 mph 71% 0.00 in 552.00 W/m2
10:49 70.6 °F 60.7 °F 29.94 in West 2.0 mph 4.0 mph 71% 0.00 in 615.00 W/m2
10:54 71.2 °F 60.9 °F 29.93 in West 7.0 mph 7.0 mph 70% 0.00 in 680.00 W/m2
10:59 71.7 °F 59.7 °F 29.93 in West 4.0 mph 7.0 mph 66% 0.00 in 626.00 W/m2
11:04 72.5 °F 60.9 °F 29.93 in NNE 6.0 mph 7.0 mph 67% 0.00 in 626.00 W/m2
11:09 73.5 °F 57.3 °F 29.93 in NNE 5.0 mph 9.0 mph 57% 0.00 in 649.00 W/m2
11:14 74.7 °F 58.0 °F 29.93 in NNW 8.0 mph 9.0 mph 56% 0.00 in 696.00 W/m2
11:19 75.4 °F 58.6 °F 29.93 in NNW 1.0 mph 10.0 mph 56% 0.00 in 710.00 W/m2
11:24 75.7 °F 57.9 °F 29.93 in North 7.0 mph 10.0 mph 54% 0.00 in 742.00 W/m2
11:29 76.2 °F 57.8 °F 29.93 in North 8.0 mph 14.0 mph 53% 0.00 in 715.00 W/m2
11:34 76.9 °F 57.4 °F 29.93 in North 5.0 mph 14.0 mph 51% 0.00 in 680.00 W/m2
11:39 77.6 °F 56.9 °F 29.93 in North 10.0 mph 12.0 mph 49% 0.00 in 722.00 W/m2
11:44 78.0 °F 55.5 °F 29.93 in NE 5.0 mph 13.0 mph 46% 0.00 in 738.00 W/m2
11:49 78.5 °F 57.7 °F 29.93 in North 10.0 mph 13.0 mph 49% 0.00 in 791.00 W/m2
11:54 78.8 °F 55.7 °F 29.93 in NNE 11.0 mph 13.0 mph 45% 0.00 in 835.00 W/m2
11:59 78.9 °F 57.0 °F 29.93 in North 10.0 mph 13.0 mph 47% 0.00 in 789.00 W/m2
12:04 78.4 °F 57.7 °F 29.93 in NE 9.0 mph 11.0 mph 49% 0.00 in 830.00 W/m2
12:09 78.8 °F 56.3 °F 29.93 in NNE 6.0 mph 11.0 mph 46% 0.00 in 846.00 W/m2
12:14 78.8 °F 53.1 °F 29.93 in East 9.0 mph 13.0 mph 41% 0.00 in 949.00 W/m2
12:19 78.5 °F 54.8 °F 29.93 in North 5.0 mph 13.0 mph 44% 0.00 in 343.00 W/m2
12:24 78.1 °F 55.0 °F 29.93 in North 7.0 mph 13.0 mph 45% 0.00 in 865.00 W/m2
12:29 77.9 °F 55.5 °F 29.93 in NE 5.0 mph 13.0 mph 46% 0.00 in 299.00 W/m2
12:34 77.6 °F 53.3 °F 29.93 in NE 8.0 mph 13.0 mph 43% 0.00 in 287.00 W/m2
12:39 77.0 °F 55.2 °F 29.93 in NNE 6.0 mph 13.0 mph 47% 0.00 in 877.00 W/m2
12:44 77.5 °F 54.5 °F 29.93 in NNE 5.0 mph 11.0 mph 45% 0.00 in 332.00 W/m2
12:49 77.7 °F 55.9 °F 29.93 in NNE 5.0 mph 9.0 mph 47% 0.00 in 350.00 W/m2
12:54 78.2 °F 53.9 °F 29.93 in North 3.0 mph 9.0 mph 43% 0.00 in 696.00 W/m2
12:59 78.4 °F 57.1 °F 29.93 in NNE 7.0 mph 9.0 mph 48% 0.00 in 846.00 W/m2
13:04 78.9 °F 57.5 °F 29.93 in NNE 6.0 mph 13.0 mph 48% 0.00 in 817.00 W/m2
13:09 78.6 °F 56.1 °F 29.93 in NNE 7.0 mph 13.0 mph 46% 0.00 in 353.00 W/m2
13:14 77.9 °F 56.6 °F 29.93 in NNW 5.0 mph 10.0 mph 48% 0.00 in 318.00 W/m2
13:19 77.4 °F 56.7 °F 29.93 in North 7.0 mph 10.0 mph 49% 0.00 in 246.00 W/m2
13:24 77.1 °F 55.9 °F 29.93 in NNE 6.0 mph 10.0 mph 48% 0.00 in 260.00 W/m2
13:29 76.8 °F 55.6 °F 29.93 in North 5.0 mph 9.0 mph 48% 0.00 in 309.00 W/m2
13:34 76.8 °F 57.3 °F 29.93 in ENE 3.0 mph 8.0 mph 51% 0.00 in 383.00 W/m2
13:39 77.1 °F 54.7 °F 29.93 in NNE 3.0 mph 9.0 mph 46% 0.00 in 552.00 W/m2
13:44 77.5 °F 55.1 °F 29.93 in North 6.0 mph 9.0 mph 46% 0.00 in 501.00 W/m2
13:49 77.6 °F 55.8 °F 29.93 in NNE 5.0 mph 8.0 mph 47% 0.00 in 476.00 W/m2
13:54 78.0 °F 56.7 °F 29.93 in NNE 5.0 mph 11.0 mph 48% 0.00 in 612.00 W/m2
13:59 78.8 °F 57.4 °F 29.92 in NNE 9.0 mph 11.0 mph 48% 0.00 in 1048.00 W/m2
14:04 79.5 °F 55.7 °F 29.92 in North 2.0 mph 9.0 mph 44% 0.00 in 810.00 W/m2
14:09 79.6 °F 55.8 °F 29.92 in NNE 6.0 mph 10.0 mph 44% 0.00 in 998.00 W/m2
14:14 79.8 °F 55.3 °F 29.92 in NE 3.0 mph 10.0 mph 43% 0.00 in 580.00 W/m2
14:19 79.7 °F 56.5 °F 29.92 in NNW 4.0 mph 10.0 mph 45% 0.00 in 673.00 W/m2
14:24 79.7 °F 54.6 °F 29.92 in NNE 7.0 mph 13.0 mph 42% 0.00 in 512.00 W/m2
14:29 79.5 °F 53.7 °F 29.92 in NE 4.0 mph 13.0 mph 41% 0.00 in 698.00 W/m2
14:34 79.5 °F 54.4 °F 29.92 in East 6.0 mph 13.0 mph 42% 0.00 in 738.00 W/m2
14:39 79.6 °F 57.0 °F 29.92 in NW 5.0 mph 13.0 mph 46% 0.00 in 962.00 W/m2
14:44 79.5 °F 56.3 °F 29.92 in NE 5.0 mph 8.0 mph 45% 0.00 in 939.00 W/m2
14:49 79.9 °F 56.7 °F 29.92 in North 8.0 mph 11.0 mph 45% 0.00 in 849.00 W/m2
14:54 79.7 °F 55.2 °F 29.92 in NNE 9.0 mph 15.0 mph 43% 0.00 in 991.00 W/m2
14:59 80.7 °F 57.4 °F 29.92 in NE 10.0 mph 15.0 mph 45% 0.00 in 947.00 W/m2
15:04 81.5 °F 55.5 °F 29.92 in North 7.0 mph 14.0 mph 41% 0.00 in 965.00 W/m2
15:09 81.5 °F 56.2 °F 29.92 in North 9.0 mph 12.0 mph 42% 0.00 in 942.00 W/m2
15:14 81.4 °F 52.6 °F 29.92 in SSW 3.0 mph 11.0 mph 37% 0.00 in 954.00 W/m2
15:19 81.2 °F 56.6 °F 29.92 in NNE 2.0 mph 9.0 mph 43% 0.00 in 854.00 W/m2
15:24 81.9 °F 57.2 °F 29.92 in North 6.0 mph 12.0 mph 43% 0.00 in 759.00 W/m2
15:29 81.4 °F 56.8 °F 29.92 in NNW 6.0 mph 12.0 mph 43% 0.00 in 476.00 W/m2
15:34 80.0 °F 55.5 °F 29.92 in North 7.0 mph 12.0 mph 43% 0.00 in 522.00 W/m2
15:39 79.3 °F 56.7 °F 29.92 in NNW 7.0 mph 13.0 mph 46% 0.00 in 638.00 W/m2
15:44 79.1 °F 54.7 °F 29.91 in NNW 14.0 mph 14.0 mph 43% 0.00 in 633.00 W/m2
15:49 79.0 °F 55.2 °F 29.91 in NNW 6.0 mph 14.0 mph 44% 0.00 in 729.00 W/m2
15:54 79.3 °F 54.2 °F 29.91 in WNW 4.0 mph 13.0 mph 42% 0.00 in 710.00 W/m2
15:59 79.0 °F 55.2 °F 29.91 in NNW 7.0 mph 11.0 mph 44% 0.00 in 585.00 W/m2
16:04 78.8 °F 55.7 °F 29.91 in NNE 9.0 mph 11.0 mph 45% 0.00 in 237.00 W/m2
16:09 78.7 °F 55.6 °F 29.91 in NNE 6.0 mph 11.0 mph 45% 0.00 in 279.00 W/m2
16:14 78.9 °F 56.4 °F 29.91 in NNE 8.0 mph 11.0 mph 46% 0.00 in 371.00 W/m2
16:19 79.2 °F 55.4 °F 29.91 in NE 7.0 mph 11.0 mph 44% 0.00 in 923.00 W/m2
16:24 79.8 °F 55.3 °F 29.91 in ENE 5.0 mph 11.0 mph 43% 0.00 in 422.00 W/m2
16:29 80.1 °F 56.2 °F 29.91 in East 5.0 mph 10.0 mph 44% 0.00 in 758.00 W/m2
16:34 81.0 °F 57.0 °F 29.91 in NNE 6.0 mph 11.0 mph 44% 0.00 in 851.00 W/m2
16:39 81.7 °F 57.0 °F 29.91 in NNE 6.0 mph 11.0 mph 43% 0.00 in 838.00 W/m2
16:44 81.8 °F 57.1 °F 29.91 in North 8.0 mph 11.0 mph 43% 0.00 in 420.00 W/m2
16:49 81.1 °F 55.8 °F 29.91 in North 7.0 mph 11.0 mph 42% 0.00 in 403.00 W/m2
16:54 81.3 °F 56.7 °F 29.91 in North 3.0 mph 9.0 mph 43% 0.00 in 759.00 W/m2
16:59 81.8 °F 54.4 °F 29.91 in NE 3.0 mph 7.0 mph 39% 0.00 in 765.00 W/m2
17:04 82.2 °F 54.8 °F 29.91 in NNE 14.0 mph 16.0 mph 39% 0.00 in 735.00 W/m2
17:09 82.4 °F 54.2 °F 29.91 in NNW 9.0 mph 16.0 mph 38% 0.00 in 487.00 W/m2
17:14 81.8 °F 55.1 °F 29.91 in NNE 6.0 mph 15.0 mph 40% 0.00 in 457.00 W/m2
17:19 81.3 °F 54.7 °F 29.91 in NNE 6.0 mph 15.0 mph 40% 0.00 in 432.00 W/m2
17:24 81.2 °F 53.9 °F 29.91 in NNE 9.0 mph 12.0 mph 39% 0.00 in 510.00 W/m2
17:29 81.3 °F 54.7 °F 29.91 in NNE 6.0 mph 11.0 mph 40% 0.00 in 554.00 W/m2
17:34 81.6 °F 54.9 °F 29.91 in NNE 7.0 mph 11.0 mph 40% 0.00 in 501.00 W/m2
17:39 81.8 °F 55.1 °F 29.91 in NNE 5.0 mph 11.0 mph 40% 0.00 in 533.00 W/m2
17:44 81.9 °F 55.2 °F 29.90 in NE 7.0 mph 12.0 mph 40% 0.00 in 464.00 W/m2
17:49 81.5 °F 52.0 °F 29.90 in NNE 5.0 mph 12.0 mph 36% 0.00 in 464.00 W/m2
Bismarck, North Dakota, USA
Compliments of Weather Underground - 4 mb